Location: Consuma
(43.7833°N, 11.5833°E)
Time: 10:47:32
(UTC+00:00)

STARLINK-1083 - Pass Details

Date: 17 February 2020
Orbit: 548 x 551 km, 53.0° (Epoch: 05 April)

Event Time Altitude Azimuth Distance (km) Brightness Sun altitude
Exits shadow 05:16:43 14° 265° (W) 1,571 5.3 -10.4°
Maximum altitude 05:20:00 44° 334° (NNW) 763 4.1 -9.8°
Drops below altitude 10° 05:23:57 10° 48° (NE) 1,810 6.8 -9.1°
Sets 05:26:16 0° 55° (NE) 2,704 7.9 -8.6°
